TimeGMT,TemperatureF,Dew PointF,Humidity,Sea Level PressureIn,VisibilityMPH,Wind Direction,Wind SpeedMPH,Gust SpeedMPH,PrecipitationIn,Events,Conditions,WindDirDegrees,DateUTC
12:20 AM,35.6,33.8,93,30.21,6.2,SSE,4.6,-,N/A,,Partly Cloudy,150,2012-12-10 00:20:00
12:50 AM,39.2,35.6,87,30.21,6.2,Variable,4.6,-,N/A,,Partly Cloudy,0,2012-12-10 00:50:00
1:20 AM,37.4,33.8,87,30.21,-9999.0,Variable,2.3,-,N/A,,Clear,0,2012-12-10 01:20:00
1:50 AM,35.6,33.8,93,30.24,-9999.0,Calm,Calm,-,N/A,,Clear,0,2012-12-10 01:50:00
2:20 AM,32.0,30.2,93,30.24,-9999.0,Variable,3.5,-,N/A,,Clear,0,2012-12-10 02:20:00
2:50 AM,33.8,32.0,93,30.24,-9999.0,North,4.6,-,N/A,,Clear,10,2012-12-10 02:50:00
3:20 AM,33.8,32.0,93,30.24,-9999.0,NNE,5.8,-,N/A,,Clear,20,2012-12-10 03:20:00
3:50 AM,32.0,30.2,93,30.24,6.2,ENE,4.6,-,N/A,,Unknown,60,2012-12-10 03:50:00
4:20 AM,33.8,32.0,93,30.27,6.2,ENE,8.1,-,N/A,,Unknown,60,2012-12-10 04:20:00
4:50 AM,33.8,32.0,93,30.27,-9999.0,East,3.5,-,N/A,,Clear,90,2012-12-10 04:50:00
5:20 AM,30.2,28.4,93,30.27,-9999.0,Calm,Calm,-,N/A,,Clear,0,2012-12-10 05:20:00
5:50 AM,33,31,91,30.31,25,SSE,2.3,,,,,150,2012-12-10 05:50:00
5:50 AM,30.2,28.4,93,30.27,-9999.0,Calm,Calm,-,N/A,,Clear,0,2012-12-10 05:50:00
6:20 AM,32.0,30.2,93,30.30,-9999.0,NNE,6.9,-,N/A,,Clear,30,2012-12-10 06:20:00
6:50 AM,32.0,28.4,87,30.30,-9999.0,ENE,4.6,-,N/A,,Clear,60,2012-12-10 06:50:00
7:20 AM,30.2,28.4,93,30.30,-9999.0,East,3.5,-,N/A,,Clear,100,2012-12-10 07:20:00
7:50 AM,30.2,28.4,93,30.30,-9999.0,ENE,4.6,-,N/A,,Clear,70,2012-12-10 07:50:00
8:20 AM,30.2,28.4,93,30.33,-9999.0,Variable,2.3,-,N/A,,Clear,0,2012-12-10 08:20:00
8:50 AM,31,27,79,30.36,14,NE,2.3,,,,,50,2012-12-10 08:50:00
8:50 AM,28.4,26.6,93,30.33,-9999.0,Variable,2.3,-,N/A,,Clear,0,2012-12-10 08:50:00
9:20 AM,30.2,28.4,93,30.33,-9999.0,Variable,2.3,-,N/A,,Clear,0,2012-12-10 09:20:00
9:50 AM,30.2,28.4,93,30.36,-9999.0,Calm,Calm,-,N/A,,Clear,0,2012-12-10 09:50:00
10:20 AM,33.8,30.2,87,30.36,-9999.0,North,3.5,-,N/A,,Clear,360,2012-12-10 10:20:00
10:50 AM,35.6,32.0,87,30.36,-9999.0,NNW,4.6,-,N/A,,Clear,340,2012-12-10 10:50:00
11:20 AM,35.6,32.0,87,30.36,6.2,NNE,5.8,-,N/A,,Partly Cloudy,20,2012-12-10 11:20:00
11:50 AM,37,31,69,30.39,16,North,3.5,,,,,10,2012-12-10 11:50:00
11:50 AM,37.4,32.0,81,30.36,6.2,North,3.5,-,N/A,,Partly Cloudy,10,2012-12-10 11:50:00
12:20 PM,37.4,32.0,81,30.36,6.2,NE,3.5,-,N/A,,Partly Cloudy,50,2012-12-10 12:20:00
12:50 PM,39.2,33.8,81,30.39,-9999.0,Variable,2.3,-,N/A,,Clear,0,2012-12-10 12:50:00
1:20 PM,39.2,33.8,81,30.39,6.2,Calm,Calm,-,N/A,,Partly Cloudy,0,2012-12-10 13:20:00
1:50 PM,39.2,33.8,81,30.39,6.2,Variable,2.3,-,N/A,,Partly Cloudy,0,2012-12-10 13:50:00
2:20 PM,41.0,33.8,76,30.39,6.2,NW,3.5,-,N/A,,Partly Cloudy,320,2012-12-10 14:20:00
2:50 PM,41,31,57,30.40,17,NE,3.5,,,,,50,2012-12-10 14:50:00
2:50 PM,39.2,32.0,75,30.39,6.2,ENE,5.8,-,N/A,,Partly Cloudy,60,2012-12-10 14:50:00
3:20 PM,37.4,32.0,81,30.39,6.2,Variable,3.5,-,N/A,,Partly Cloudy,0,2012-12-10 15:20:00
3:50 PM,35.6,30.2,81,30.39,6.2,NE,3.5,-,N/A,,Partly Cloudy,50,2012-12-10 15:50:00
4:20 PM,32.0,28.4,87,30.39,6.2,East,3.5,-,N/A,,Partly Cloudy,90,2012-12-10 16:20:00
4:50 PM,30.2,28.4,93,30.39,-9999.0,East,3.5,-,N/A,,Clear,100,2012-12-10 16:50:00
5:20 PM,30.2,26.6,86,30.39,-9999.0,East,3.5,-,N/A,,Clear,90,2012-12-10 17:20:00
5:50 PM,33,28,77,30.43,11,ESE,2.3,,,,,110,2012-12-10 17:50:00
5:50 PM,30.2,28.4,93,30.42,-9999.0,Variable,3.5,-,N/A,,Clear,0,2012-12-10 17:50:00
6:20 PM,28.4,26.6,93,30.42,-9999.0,SW,2.3,-,N/A,,Clear,230,2012-12-10 18:20:00
6:50 PM,28.4,26.6,93,30.42,-9999.0,SE,2.3,-,N/A,,Clear,130,2012-12-10 18:50:00
7:20 PM,26.6,24.8,93,30.42,-9999.0,East,4.6,-,N/A,,Clear,100,2012-12-10 19:20:00
7:50 PM,26.6,24.8,93,30.42,-9999.0,Variable,2.3,-,N/A,,Clear,0,2012-12-10 19:50:00
8:20 PM,24.8,24.8,100,30.42,-9999.0,ENE,3.5,-,N/A,,Clear,70,2012-12-10 20:20:00
8:50 PM,29,26,86,30.46,7,East,2.3,,,,,90,2012-12-10 20:50:00
8:50 PM,24.8,24.8,100,30.45,-9999.0,East,4.6,-,N/A,,Clear,80,2012-12-10 20:50:00
9:20 PM,26.6,26.6,100,30.45,-9999.0,ESE,4.6,-,N/A,,Clear,110,2012-12-10 21:20:00
9:50 PM,26.6,26.6,100,30.45,-9999.0,Variable,3.5,-,N/A,,Clear,0,2012-12-10 21:50:00
10:20 PM,26.6,24.8,93,30.45,-9999.0,East,3.5,-,N/A,,Clear,80,2012-12-10 22:20:00
11:20 PM,26.6,24.8,93,30.45,-9999.0,ENE,4.6,-,N/A,,Clear,70,2012-12-10 23:20:00
11:50 PM,29,27,87,30.47,10,ENE,5.8,,,,,60,2012-12-10 23:50:00
11:50 PM,28.4,26.6,93,30.45,-9999.0,East,5.8,-,N/A,,Clear,90,2012-12-10 23:50:00